• In Hungary
  • List of Countries
  • For 7 days
  • Water Temperature
  • Satellite Maps
  • Weather Map
  • News
  • Weather Widgets
  • user-avatar
    Login

    Hourly Weather Ust-Muya

    Today, 24 October, Tuesday

    Time Temperature Precipitation Wind Pressure Humidity
    00:00 +1°C° 0.4 mm 2 mps 716 mmHg 87%
    01:00 -1°C° 0.4 mm 3 mps 716 mmHg 86%
    02:00 -1°C° 0 mm 3 mps 717 mmHg 86%
    03:00 -2°C° 0.1 mm 3 mps 717 mmHg 83%
    04:00 -4°C° 0.1 mm 3 mps 718 mmHg 81%
    05:00 -5°C° 0.1 mm 3 mps 718 mmHg 78%
    06:00 -5°C° 0 mm 3 mps 719 mmHg 78%
    07:00 -5°C° 0 mm 2 mps 720 mmHg 78%
    08:00 -5°C° 0 mm 3 mps 720 mmHg 74%
    09:00 -4°C° 0 mm 4 mps 720 mmHg 69%
    10:00 -4°C° 0 mm 4 mps 720 mmHg 64%
    11:00 -3°C° 0 mm 4 mps 721 mmHg 59%
    12:00 -3°C° 0 mm 4 mps 721 mmHg 58%
    13:00 -3°C° 0 mm 4 mps 721 mmHg 58%
    14:00 -2°C° 0 mm 4 mps 721 mmHg 57%
    15:00 -2°C° 0 mm 3 mps 721 mmHg 61%
    16:00 -3°C° 0 mm 2 mps 722 mmHg 65%
    17:00 -4°C° 0 mm 2 mps 722 mmHg 69%
    18:00 -5°C° 0 mm 2 mps 722 mmHg 70%
    19:00 -5°C° 0 mm 2 mps 723 mmHg 71%
    20:00 -3°C° 0 mm 1 mps 723 mmHg 73%
    21:00 -4°C° 0 mm 1 mps 723 mmHg 73%
    22:00 -4°C° 0 mm 1 mps 723 mmHg 72%
    23:00 -6°C° 0 mm 1 mps 724 mmHg 72%

    Tomorrow, 25 October, Wednesday

    Time Temperature Precipitation Wind Pressure Humidity
    00:00 -6°C° 0 mm 1 mps 724 mmHg 72%
    01:00 -6°C° 0 mm 1 mps 724 mmHg 72%
    02:00 -7°C° 0 mm 1 mps 724 mmHg 71%
    03:00 -7°C° 0 mm 1 mps 723 mmHg 71%
    04:00 -7°C° 0 mm 1 mps 723 mmHg 72%
    05:00 -7°C° 0 mm 1 mps 723 mmHg 72%
    06:00 -7°C° 0 mm 1 mps 723 mmHg 71%
    07:00 -7°C° 0 mm 1 mps 723 mmHg 71%
    08:00 -7°C° 0 mm 1 mps 723 mmHg 71%
    09:00 -6°C° 0 mm 1 mps 723 mmHg 66%
    10:00 -3°C° 0 mm 1 mps 723 mmHg 61%
    11:00 -2°C° 0 mm 1 mps 723 mmHg 56%
    12:00 -1°C° 0 mm 1 mps 722 mmHg 55%
    13:00 -1°C° 0 mm 1 mps 722 mmHg 54%
    14:00 -1°C° 0 mm 1 mps 722 mmHg 53%
    15:00 -2°C° 0 mm 1 mps 721 mmHg 57%
    16:00 -3°C° 0 mm 1 mps 721 mmHg 62%
    17:00 -6°C° 0 mm 1 mps 721 mmHg 66%
    18:00 -6°C° 0 mm 1 mps 721 mmHg 66%
    19:00 -6°C° 0 mm 1 mps 721 mmHg 67%
    20:00 -7°C° 0 mm 1 mps 722 mmHg 67%
    21:00 -7°C° 0 mm 1 mps 721 mmHg 67%
    22:00 -7°C° 0 mm 1 mps 721 mmHg 67%
    23:00 -7°C° 0 mm 1 mps 721 mmHg 67%

    Day after tomorrow, 26 October, Thursday

    Time Temperature Precipitation Wind Pressure Humidity
    00:00 -7°C° 0 mm 1 mps 721 mmHg 67%
    01:00 -7°C° 0 mm 1 mps 721 mmHg 67%
    02:00 -7°C° 0 mm 1 mps 720 mmHg 67%
    03:00 -7°C° 0 mm 1 mps 720 mmHg 67%
    04:00 -8°C° 0 mm 2 mps 720 mmHg 67%
    05:00 -7°C° 0 mm 2 mps 719 mmHg 67%
    06:00 -7°C° 0 mm 2 mps 719 mmHg 67%
    07:00 -7°C° 0 mm 2 mps 718 mmHg 67%
    08:00 -6°C° 0 mm 2 mps 718 mmHg 66%
    09:00 -5°C° 0 mm 2 mps 717 mmHg 64%
    10:00 -3°C° 0 mm 2 mps 717 mmHg 62%
    11:00 -2°C° 0 mm 2 mps 716 mmHg 59%
    12:00 -1°C° 0 mm 2 mps 715 mmHg 60%
    13:00 -1°C° 0 mm 2 mps 714 mmHg 62%
    14:00 +1°C° 0 mm 2 mps 713 mmHg 63%
    15:00 -1°C° 0.1 mm 2 mps 713 mmHg 68%
    16:00 -2°C° 0.1 mm 2 mps 713 mmHg 74%
    17:00 -1°C° 0.1 mm 1 mps 713 mmHg 80%
    18:00 -1°C° 0.4 mm 1 mps 713 mmHg 84%
    19:00 -1°C° 0.4 mm 1 mps 713 mmHg 87%
    20:00 -1°C° 0.4 mm 1 mps 713 mmHg 91%
    21:00 -1°C° 0.3 mm 1 mps 713 mmHg 91%
    22:00 -1°C° 0.3 mm 1 mps 714 mmHg 91%
    23:00 -3°C° 0.3 mm 2 mps 714 mmHg 90%

    27 October, Friday

    Time Temperature Precipitation Wind Pressure Humidity
    00:00 -3°C° 0.1 mm 2 mps 714 mmHg 89%
    01:00 -4°C° 0.1 mm 2 mps 715 mmHg 87%
    02:00 -5°C° 0.1 mm 3 mps 715 mmHg 85%
    03:00 -5°C° 0 mm 2 mps 716 mmHg 84%
    04:00 -5°C° 0 mm 2 mps 716 mmHg 82%
    05:00 -6°C° 0 mm 2 mps 717 mmHg 80%
    06:00 -7°C° 0 mm 2 mps 717 mmHg 79%
    07:00 -7°C° 0 mm 2 mps 718 mmHg 77%
    08:00 -8°C° 0 mm 2 mps 718 mmHg 75%
    09:00 -7°C° 0 mm 2 mps 719 mmHg 70%
    10:00 -6°C° 0 mm 2 mps 719 mmHg 64%
    11:00 -4°C° 0 mm 2 mps 719 mmHg 58%
    12:00 -4°C° 0 mm 2 mps 719 mmHg 58%
    13:00 -4°C° 0 mm 2 mps 718 mmHg 57%
    14:00 -3°C° 0 mm 2 mps 718 mmHg 56%
    15:00 -5°C° 0 mm 2 mps 719 mmHg 60%
    16:00 -6°C° 0 mm 2 mps 719 mmHg 64%
    17:00 -6°C° 0 mm 1 mps 720 mmHg 68%
    18:00 -7°C° 0 mm 1 mps 720 mmHg 69%
    19:00 -7°C° 0 mm 1 mps 721 mmHg 69%
    20:00 -9°C° 0 mm 2 mps 721 mmHg 70%
    21:00 -8°C° 0 mm 1 mps 722 mmHg 71%
    22:00 -8°C° 0 mm 1 mps 722 mmHg 71%
    23:00 -8°C° 0 mm 1 mps 722 mmHg 72%

    28 October, Saturday

    Time Temperature Precipitation Wind Pressure Humidity
    00:00 -8°C° 0 mm 1 mps 722 mmHg 73%
    01:00 -8°C° 0 mm 1 mps 722 mmHg 74%
    02:00 -8°C° 0 mm 1 mps 723 mmHg 76%
    03:00 -8°C° 0 mm 1 mps 723 mmHg 77%
    04:00 -8°C° 0 mm 1 mps 723 mmHg 78%
    05:00 -8°C° 0 mm 1 mps 723 mmHg 79%
    06:00 -8°C° 0 mm 1 mps 723 mmHg 79%
    07:00 -8°C° 0 mm 1 mps 724 mmHg 79%
    08:00 -7°C° 0 mm 1 mps 724 mmHg 79%
    09:00 -6°C° 0 mm 1 mps 724 mmHg 74%
    10:00 -3°C° 0 mm 1 mps 724 mmHg 70%
    11:00 -4°C° 0 mm 2 mps 723 mmHg 65%
    12:00 -3°C° 0 mm 2 mps 723 mmHg 63%
    13:00 -3°C° 0 mm 2 mps 723 mmHg 62%
    14:00 -2°C° 0 mm 2 mps 723 mmHg 60%
    15:00 -3°C° 0 mm 2 mps 723 mmHg 64%
    16:00 -2°C° 0 mm 1 mps 723 mmHg 69%
    17:00 -3°C° 0 mm 1 mps 723 mmHg 73%
    18:00 -4°C° 0 mm 1 mps 723 mmHg 74%
    19:00 -4°C° 0 mm 1 mps 724 mmHg 74%
    20:00 -4°C° 0 mm 1 mps 724 mmHg 75%
    21:00 -4°C° 0 mm 1 mps 724 mmHg 75%
    22:00 -4°C° 0 mm 1 mps 724 mmHg 76%
    23:00 -4°C° 0 mm 1 mps 724 mmHg 76%

    29 October, Sunday

    Time Temperature Precipitation Wind Pressure Humidity
    00:00 -4°C° 0 mm 1 mps 724 mmHg 76%
    01:00 -4°C° 0 mm 1 mps 723 mmHg 76%
    02:00 -4°C° 0 mm 1 mps 723 mmHg 76%
    03:00 -6°C° 0 mm 1 mps 723 mmHg 77%
    04:00 -6°C° 0 mm 1 mps 723 mmHg 77%
    05:00 -6°C° 0 mm 1 mps 723 mmHg 77%
    06:00 -6°C° 0 mm 1 mps 722 mmHg 76%
    07:00 -6°C° 0 mm 1 mps 722 mmHg 75%
    08:00 -6°C° 0 mm 1 mps 722 mmHg 74%
    09:00 -4°C° 0 mm 1 mps 721 mmHg 70%
    10:00 -2°C° 0 mm 1 mps 721 mmHg 65%
    11:00 0°C° 0 mm 1 mps 720 mmHg 61%
    12:00 0°C° 0 mm 1 mps 720 mmHg 60%
    13:00 +1°C° 0 mm 1 mps 719 mmHg 60%
    14:00 +2°C° 0 mm 1 mps 718 mmHg 59%
    15:00 0°C° 0 mm 1 mps 718 mmHg 63%
    16:00 -1°C° 0 mm 1 mps 718 mmHg 66%
    17:00 -2°C° 0 mm 1 mps 718 mmHg 70%
    18:00 -2°C° 0 mm 1 mps 718 mmHg 70%
    19:00 -2°C° 0 mm 1 mps 717 mmHg 69%
    20:00 -2°C° 0 mm 1 mps 717 mmHg 69%
    21:00 -2°C° 0 mm 1 mps 717 mmHg 69%
    22:00 -2°C° 0 mm 1 mps 717 mmHg 70%
    23:00 -2°C° 0 mm 1 mps 716 mmHg 70%

    30 October, Monday

    Time Temperature Precipitation Wind Pressure Humidity
    00:00 -2°C° 0 mm 1 mps 716 mmHg 70%
    01:00 -2°C° 0 mm 1 mps 716 mmHg 70%
    02:00 -2°C° 0 mm 1 mps 716 mmHg 70%
    03:00 -2°C° 0 mm 1 mps 716 mmHg 71%
    04:00 -2°C° 0 mm 1 mps 715 mmHg 72%
    05:00 -2°C° 0 mm 1 mps 715 mmHg 72%
    06:00 -3°C° 0 mm 0 mps 715 mmHg 74%
    07:00 -3°C° 0 mm 0 mps 715 mmHg 75%
    08:00 -3°C° 0 mm 0 mps 715 mmHg 77%
    09:00 -2°C° 0 mm 0 mps 715 mmHg 74%
    10:00 0°C° 0 mm 1 mps 715 mmHg 72%
    11:00 +1°C° 0 mm 1 mps 715 mmHg 70%
    12:00 +1°C° 0 mm 1 mps 715 mmHg 69%
    13:00 +1°C° 0 mm 2 mps 715 mmHg 68%
    14:00 +1°C° 0 mm 2 mps 715 mmHg 67%
    15:00 -2°C° 0 mm 2 mps 715 mmHg 70%
    16:00 -4°C° 0 mm 2 mps 715 mmHg 72%
    17:00 -5°C° 0 mm 2 mps 716 mmHg 75%
    18:00 -6°C° 0 mm 2 mps 716 mmHg 75%
    19:00 -6°C° 0 mm 2 mps 717 mmHg 75%
    20:00 -7°C° 0 mm 2 mps 717 mmHg 75%
    21:00 -7°C° 0 mm 2 mps 718 mmHg 76%
    22:00 -8°C° 0 mm 2 mps 718 mmHg 76%
    23:00 -8°C° 0 mm 2 mps 718 mmHg 76%
    Show more